Total_Precipitation_Accumulation
0.63 0.61 0.58 0.53 0.47 0.44 0.43 0.41 0.38 0.38 0.38 0.39 0.45 0.47 0.54 0.63 0.78 0.97 1.05 1.02 0.93 0.91 0.91 0.96 1.05 1.11 1.27 1.18 1.03 0.89 0.79 0.71 0.62 0.51 0.36 0.24 0.24 0.24 0.25 0.17 0.10 0.07 0.06
0.75 0.72 0.64 0.55 0.50 0.50 0.49 0.42 0.38 0.32 0.30 0.36 0.40 0.44 0.48 0.49 0.59 0.75 0.89 0.95 0.92 0.84 0.79 0.82 0.95 1.06 1.24 1.31 1.25 1.09 0.98 0.87 0.79 0.70 0.54 0.39 0.32 0.29 0.30 0.29 0.21 0.14 0.13
0.86 0.77 0.68 0.60 0.52 0.49 0.43 0.38 0.41 0.36 0.38 0.45 0.50 0.53 0.53 0.53 0.52 0.55 0.61 0.69 0.73 0.70 0.66 0.64 0.66 0.76 0.97 1.15 1.20 1.18 1.15 1.06 0.97 0.86 0.68 0.54 0.43 0.32 0.29 0.30 0.26 0.23 0.20
1.03 0.94 0.83 0.71 0.59 0.54 0.47 0.42 0.40 0.39 0.41 0.43 0.44 0.50 0.59 0.58 0.55 0.54 0.52 0.49 0.46 0.47 0.51 0.54 0.55 0.57 0.69 0.79 0.89 1.03 1.23 1.22 1.13 1.04 0.83 0.61 0.49 0.38 0.32 0.31 0.31 0.29 0.29
1.07 1.06 0.92 0.73 0.60 0.54 0.49 0.42 0.39 0.38 0.38 0.40 0.42 0.44 0.50 0.56 0.61 0.62 0.48 0.39 0.35 0.31 0.30 0.31 0.36 0.44 0.51 0.54 0.60 0.80 1.06 1.18 1.14 1.07 0.97 0.76 0.53 0.43 0.31 0.27 0.32 0.37 0.35
0.99 0.96 0.75 0.57 0.46 0.41 0.41 0.39 0.34 0.33 0.36 0.40 0.39 0.40 0.48 0.50 0.59 0.56 0.39 0.33 0.32 0.32 0.30 0.24 0.25 0.28 0.30 0.33 0.37 0.45 0.63 0.81 0.98 1.08 1.05 0.89 0.70 0.55 0.47 0.40 0.37 0.38 0.39
0.64 0.60 0.50 0.40 0.37 0.40 0.42 0.36 0.34 0.33 0.33 0.36 0.36 0.37 0.40 0.50 0.47 0.32 0.30 0.28 0.31 0.32 0.30 0.30 0.30 0.24 0.25 0.24 0.30 0.32 0.32 0.38 0.53 0.75 0.89 0.93 0.96 0.76 0.61 0.51 0.44 0.44 0.45
0.40 0.40 0.34 0.30 0.31 0.34 0.35 0.34 0.39 0.43 0.41 0.40 0.42 0.42 0.40 0.44 0.38 0.27 0.27 0.27 0.32 0.34 0.33 0.33 0.39 0.35 0.32 0.35 0.31 0.32 0.31 0.29 0.39 0.38 0.50 0.76 0.84 0.81 0.70 0.66 0.69 0.60 0.50
0.12 0.13 0.12 0.12 0.13 0.14 0.16 0.22 0.32 0.39 0.41 0.43 0.46 0.46 0.41 0.37 0.34 0.25 0.24 0.29 0.34 0.38 0.35 0.32 0.35 0.37 0.45 0.47 0.40 0.48 0.49 0.42 0.50 0.52 0.52 0.54 0.55 0.53 0.56 0.56 0.55 0.54 0.51
0.01 0.01 0.01 0.01 0.02 0.03 0.05 0.08 0.15 0.19 0.24 0.31 0.33 0.36 0.38 0.36 0.41 0.28 0.26 0.28 0.32 0.37 0.37 0.37 0.47 0.44 0.47 0.44 0.36 0.52 0.55 0.48 0.44 0.47 0.45 0.39 0.34 0.34 0.36 0.38 0.49 0.51 0.46
0.00 0.00 0.00 0.00 0.00 0.01 0.01 0.03 0.06 0.07 0.12 0.16 0.20 0.25 0.32 0.37 0.44 0.38 0.38 0.36 0.36 0.43 0.43 0.40 0.40 0.48 0.32 0.28 0.29 0.35 0.48 0.41 0.37 0.42 0.42 0.39 0.33 0.31 0.30 0.31 0.39 0.46 0.48
0.00 0.00 0.00 0.00 0.00 0.00 0.01 0.01 0.02 0.03 0.05 0.08 0.10 0.14 0.20 0.25 0.31 0.35 0.32 0.33 0.34 0.42 0.47 0.40 0.41 0.46 0.29 0.23 0.23 0.30 0.35 0.33 0.34 0.39 0.37 0.35 0.31 0.26 0.25 0.25 0.25 0.26 0.29
0.00 0.00 0.00 0.00 0.01 0.01 0.01 0.01 0.02 0.03 0.04 0.06 0.08 0.14 0.19 0.26 0.27 0.22 0.19 0.19 0.22 0.33 0.37 0.40 0.42 0.37 0.29 0.23 0.23 0.27 0.29 0.30 0.40 0.40 0.34 0.30 0.26 0.24 0.21 0.20 0.21 0.23 0.25
0.00 0.00 0.00 0.01 0.01 0.01 0.02 0.03 0.03 0.04 0.05 0.08 0.13 0.18 0.22 0.24 0.26 0.23 0.23 0.23 0.21 0.26 0.28 0.28 0.31 0.29 0.30 0.29 0.25 0.26 0.28 0.31 0.34 0.32 0.27 0.25 0.24 0.24 0.25 0.25 0.27 0.29 0.32
0.00 0.00 0.00 0.00 0.01 0.01 0.01 0.01 0.02 0.02 0.04 0.10 0.17 0.21 0.21 0.20 0.15 0.14 0.23 0.32 0.37 0.43 0.49 0.43 0.41 0.37 0.35 0.32 0.29 0.27 0.29 0.31 0.28 0.23 0.22 0.20 0.19 0.20 0.20 0.20 0.22 0.25 0.27
0.00 0.00 0.00 0.00 0.01 0.01 0.01 0.00 0.01 0.02 0.05 0.07 0.07 0.09 0.10 0.09 0.08 0.10 0.16 0.26 0.33 0.43 0.57 0.60 0.60 0.58 0.54 0.47 0.37 0.29 0.23 0.22 0.23 0.23 0.24 0.23 0.21 0.19 0.18 0.16 0.15 0.16 0.18
0.00 0.00 0.00 0.00 0.01 0.01 0.02 0.04 0.05 0.04 0.02 0.01 0.01 0.02 0.08 0.15 0.19 0.23 0.24 0.27 0.30 0.40 0.58 0.65 0.65 0.61 0.55 0.49 0.43 0.33 0.24 0.20 0.21 0.20 0.20 0.20 0.21 0.20 0.18 0.13 0.10 0.10 0.11
0.00 0.00 0.00 0.03 0.05 0.05 0.05 0.09 0.13 0.17 0.14 0.07 0.01 0.01 0.04 0.11 0.15 0.18 0.24 0.36 0.38 0.44 0.51 0.52 0.51 0.39 0.31 0.26 0.22 0.18 0.13 0.12 0.13 0.11 0.11 0.10 0.12 0.13 0.14 0.13 0.12 0.11 0.11
0.00 0.01 0.03 0.07 0.09 0.07 0.08 0.13 0.14 0.10 0.08 0.07 0.04 0.02 0.01 0.04 0.06 0.08 0.16 0.33 0.34 0.28 0.23 0.19 0.17 0.14 0.10 0.09 0.08 0.08 0.06 0.05 0.04 0.03 0.03 0.03 0.04 0.05 0.08 0.09 0.11 0.13 0.16
0.00 0.00 0.02 0.07 0.09 0.07 0.07 0.07 0.07 0.05 0.03 0.04 0.04 0.04 0.04 0.05 0.07 0.07 0.09 0.13 0.12 0.08 0.06 0.06 0.05 0.04 0.04 0.04 0.03 0.03 0.03 0.03 0.03 0.02 0.02 0.02 0.02 0.03 0.05 0.08 0.11 0.13 0.14
0.00 0.00 0.00 0.03 0.05 0.04 0.03 0.03 0.03 0.02 0.02 0.03 0.02 0.01 0.03 0.07 0.08 0.07 0.06 0.05 0.04 0.03 0.04 0.05 0.03 0.02 0.02 0.02 0.03 0.03 0.03 0.03 0.03 0.03 0.03 0.03 0.03 0.03 0.05 0.08 0.12 0.14 0.15
0.00 0.01 0.02 0.04 0.04 0.02 0.02 0.03 0.05 0.04 0.02 0.03 0.03 0.02 0.03 0.06 0.07 0.05 0.05 0.05 0.03 0.03 0.04 0.06 0.06 0.04 0.03 0.03 0.03 0.02 0.03 0.03 0.03 0.03 0.03 0.03 0.03 0.03 0.04 0.06 0.09 0.13 0.16
0.00 0.00 0.01 0.03 0.03 0.01 0.01 0.03 0.04 0.04 0.02 0.02 0.03 0.04 0.04 0.06 0.06 0.06 0.07 0.06 0.07 0.07 0.06 0.06 0.08 0.07 0.04 0.03 0.03 0.03 0.03 0.03 0.03 0.04 0.04 0.04 0.04 0.05 0.05 0.05 0.06 0.08 0.11
0.00 0.00 0.01 0.02 0.02 0.01 0.02 0.03 0.04 0.03 0.03 0.04 0.05 0.05 0.05 0.05 0.04 0.04 0.04 0.05 0.07 0.08 0.06 0.04 0.04 0.03 0.02 0.03 0.03 0.03 0.05 0.05 0.03 0.03 0.04 0.05 0.06 0.07 0.09 0.12 0.15 0.16 0.17
0.00 0.00 0.01 0.02 0.02 0.01 0.01 0.02 0.03 0.03 0.03 0.04 0.04 0.03 0.03 0.04 0.03 0.02 0.04 0.04 0.05 0.06 0.04 0.04 0.04 0.02 0.01 0.01 0.02 0.03 0.06 0.07 0.07 0.06 0.05 0.05 0.07 0.10 0.14 0.21 0.26 0.28 0.29
0.00 0.00 0.00 0.01 0.01 0.01 0.01 0.02 0.03 0.02 0.02 0.02 0.02 0.02 0.03 0.03 0.02 0.01 0.02 0.02 0.03 0.04 0.03 0.03 0.04 0.02 0.01 0.01 0.02 0.04 0.07 0.07 0.06 0.05 0.02 0.02 0.04 0.07 0.08 0.11 0.15 0.19 0.23